Regional Weather Roundup
Issued by NWS

Home | Current Version | Previous Version | Text Only | Print | Product List | Glossary Off
Versions: 1 2 3 4 5 6 7 8 9 10 11 12 13 14 15 16 17 18 19 20 21 22 23 24 25 26 27 28 29 30 31 32 33 34 35 36 37 38 39 40 41 42 43 44 45 46 47 48 49 50

666
ASUS44 KLIX 222310
RWRLA
LOUISIANA WEATHER ROUNDUP
NATIONAL WEATHER SERVICE NEW ORLEANS LA
600 PM CDT MON SEP 22 2014

NOTE: "FAIR" INDICATES FEW OR NO CLOUDS BELOW 12,000 FEET WITH NO
      SIGNIFICANT WEATHER AND/OR OBSTRUCTIONS TO VISIBILITY.
      SKY/WX - SKY CONDITION AND SIGNIFICANT WEATHER.
      TMP - AIR TEMPERATURE.    DP   - DEWPOINT TEMPERATURE.
      RH  - RELATIVE HUMIDITY.  PRES - PRESSURE.
      HX  - HEAT INDEX.         WCI  - WIND CHILL INDEX.

*  THESE STATIONS ARE NOT NWS OR FAA STATIONS AND ARE NOT UNDER
   NWS QUALITY CONTROL.

LAZ040-048-061>063-065-066-069-230000-
SOUTHEAST LOUISIANA

CITY           SKY/WX    TMP DP  RH WIND       PRES   REMARKS
N.O. AUDUBON     N/A     87  70  57 MISG        N/A
N.O. INTL ARPT MOSUNNY   86  68  54 NE16      29.97R
N.O. LAKEFRONT SUNNY     86  69  56 NE17      29.98R
N.O. DOWNTOWN* MOCLDY    86  66  51 NE9G18    29.98R
SLIDELL        SUNNY     85  66  53 N8        29.98R
BATON ROUGE    SUNNY     84  63  49 N8        30.00R
BOOTHVILLE     PTSUNNY   84  70  62 E3        29.97R
BELLE CHASSE   PTSUNNY   81  70  69 E8        29.96S
BOGALUSA*        N/A     84  53  35 NE9       30.02S
GALLIANO*      NOT AVBL
NEW ROADS*     FAIR      82  60  47 NW9       30.02S
GONZALES*      FAIR      85  66  53 NE8       29.98R
HAMMOND*       SUNNY     84  59  42 N8        30.01S
HOUMA*         MOSUNNY   81  64  57 N6        29.97R
PORT FOURCHON* CLEAR     88  68  51 E7        29.98F

$$

LAZ041-044-053-054-230000-
SOUTHWEST LOUISIANA

CITY           SKY/WX    TMP DP  RH WIND       PRES   REMARKS
LAKE CHARLES   SUNNY     85  67  54 NE15      30.00S
LAFAYETTE      SUNNY     85  63  47 N18       30.00R
PATTERSON      SUNNY     86  72  62 N8        30.00S
SALT POINT       N/A     88  73  61 N7        29.97R HX  95
NEW IBERIA     SUNNY     86  67  52 N16       29.99R
CHENAULT AIRPK NOT AVBL

$$

LAZ027-028-230000-
CENTRAL LOUISIANA

CITY           SKY/WX    TMP DP  RH WIND       PRES   REMARKS
FORT POLK      SUNNY     82  59  45 N7        30.05R
ALEXANDRIA INT SUNNY     83  54  36 N10       30.04R
ALEXANDRIA     SUNNY     83  55  38 VRB6      30.06R

$$

LAZ001-002-230000-
NORTHWEST LOUISIANA

CITY           SKY/WX    TMP DP  RH WIND       PRES   REMARKS
SHREVEPORT     SUNNY     83  49  30 NE13      30.09S
BARKSDALE AFB  SUNNY     83  50  32 NE8       30.10S
DTN SHREVEPORT SUNNY     82  52  35 NE10      30.10S

$$

LAZ014-016-230000-
NORTHEAST LOUISIANA

CITY           SKY/WX    TMP DP  RH WIND       PRES   REMARKS
MONROE         SUNNY     81  52  36 N9        30.10S
TALLULAH       SUNNY     81  50  33 NE14      30.08R

$$




USA.gov is the U.S. government's official web portal to all federal, state and local government web resources and services.